Flag for Poland Weather past 2 weeks in Legnica, Poland

Now
65 °F

Fog.


Feels Like: 65 °F
Forecast: 60 / 85 °F
Wind: No wind

Location: Wroclaw Ii

Current Time: Jul 26, 2014 at 1:42:07 AM

Latest Report: Jul 26, 2014 at 1:00 AM


Visibility: 9 mi

Pressure: 29.96 "Hg

Humidity: 94%

Dew point: 64 °F

Location of LegnicaLocation

Historic Weather in Legnica — Graph

°F

Legnica temperature yesterday

Maximum temperature yesterday: 77 °F (at 6:00 PM)
Minimum temperature yesterday: 64 °F (at 5:00 AM)
Average temperature yesterday: 69 °F

Past Weeks' High & Low Weather Summary

 TemperatureHumidityPressure
High92 °F (Jul 20, 5:00 PM)95% (Jul 11, 5:00 AM)30.16 "Hg (Jul 11, 5:00 AM)
Low54 °F (Jul 13, 5:00 AM)32% (Jul 20, 3:00 PM)29.72 "Hg (Jul 11, 5:00 PM)
Average72 °F67%29.95 "Hg
* Reported Midnight between Jul 10 and Jul 11 — Midnight between Jul 25 and Jul 26, Legnica, Weather by CustomWeather, © 2014

Note: Actual official high and low records may vary slightly from our data, if they occured in-between our weather recording intervals... More about our weather records

Advertising

Legnica weather history for previous 24 hours

 ConditionsComfort  
Time TempWeatherWind HumidityBarometerVisibility
12:00 AM
Jul 26
67 °FPassing clouds.No wind92%29.96 "Hg12 mi
11:00 PM
Jul 25
68 °FPassing clouds.1 mph87%29.96 "Hg19 mi
10:00 PM71 °FPassing clouds.2 mph82%29.95 "Hg12 mi
9:00 PM72 °FPassing clouds.2 mph73%29.94 "Hg12 mi
8:00 PM74 °FPassing clouds.3 mph69%29.93 "Hg25 mi
7:00 PM75 °FPassing clouds.3 mph70%29.93 "Hg19 mi
6:00 PM77 °FScattered clouds.2 mph63%29.93 "Hg16 mi
5:00 PM76 °FScattered clouds.3 mph67%29.92 "Hg16 mi
4:00 PM75 °FPartly sunny.3 mph70%29.93 "Hg9 mi
3:00 PM73 °FOvercast.3 mph78%29.95 "Hg7 mi
2:00 PM71 °FSprinkles. Overcast.5 mph85%29.96 "Hg5 mi
1:00 PM70 °FLight rain. Overcast.5 mph88%29.96 "Hg7 mi
12:00 PMN/APassing clouds.31 mphN/AN/A1 mi
11:00 AM70 °FFog.2 mph83%29.95 "Hg5 mi
10:00 AM68 °FLow clouds.2 mph87%29.96 "Hg5 mi
9:00 AM67 °FFog.2 mph91%29.95 "Hg4 mi
8:00 AM66 °FFog.2 mph93%29.94 "Hg4 mi
7:00 AM65 °FFog.2 mph93%29.93 "Hg4 mi
6:00 AM65 °FOvercast.2 mph95%29.93 "Hg5 mi
5:00 AM64 °FSprinkles. Low clouds.2 mph95%29.93 "Hg4 mi
4:00 AM65 °FLow clouds.2 mph92%29.93 "Hg6 mi
3:00 AM66 °FSprinkles. Low clouds.3 mph91%29.92 "Hg6 mi
2:00 AM66 °FLow clouds.2 mph92%29.93 "Hg7 mi
1:00 AM66 °FLow clouds.3 mph92%29.94 "Hg7 mi
Weather by CustomWeather, © 2014

See weather overviewHow to use our weather pages